Woodward, OK

2:55 PM CST on February 20, 2017 (GMT -0600)
West Woodward

Weather History for KWWR - January, 2013

Change the Weather History Date:

Sunday, January 27, 2013

  Actual Average (KGAG) Record (KGAG)
Temperature  
Mean Temperature 62 °F -  
Max Temperature 78 °F 48 °F 81 °F (2015)
Min Temperature 46 °F 19 °F -4 °F (1963)
Degree Days  
Heating Degree Days 3    
Growing Degree Days 12 (Base 50)    
Moisture  
Dew Point 41 °F    
Average Humidity 58    
Maximum Humidity 94    
Minimum Humidity 17    
Precipitation  
Precipitation 0.00 in - - ()
Sea Level Pressure  
Sea Level Pressure 29.82 in    
Wind  
Wind Speed 18 mph (SSW)    
Max Wind Speed 29 mph    
Max Gust Speed 36 mph    
Visibility 8 miles    
Events      
Averages and records for this station are not official NWS values.
T = Trace of Precipitation, MM = Missing Value Source: NWS Daily Summary

Daily Weather History Graph

Daily Weather History Graph

Search for Another Location

Airport or City:

Trip Planner

Search our weather history database for the weather conditions in past years. The results will help you decide how hot, cold, wet, or windy it might be!

Date:

Astronomy

Jan. 27, 2013 Rise Set
Actual Time 7:43 AM CST 5:59 PM CST
Civil Twilight 7:15 AM CST 6:26 PM CST
Nautical Twilight 6:44 AM CST 6:57 PM CST
Astronomical Twilight 6:14 AM CST 7:28 PM CST
Moon 6:52 PM CST (1/27) 7:39 AM CST (1/27)
Length of Visible Light 11h 11m
Length of Day
10h 16m
Full, 100% of the Moon is Illuminated
Jan 27
Full
Feb 3
Last Quarter
Feb 10
New
Feb 17
First Quarter
Feb 25
Full

Hourly Weather History & Observations

Time (CST) Temp. Windchill Dew Point Humidity Pressure Visibility Wind Dir Wind Speed Gust Speed Precip Events Conditions
12:15 AM 46.4 °F 39.5 °F 37.4 °F 71% 29.95 in 10.0 mi South 17.3 mph 23.0 mph N/A   Mostly Cloudy
12:35 AM 46.4 °F 39.2 °F 37.4 °F 71% 29.96 in 10.0 mi South 18.4 mph 26.5 mph N/A   Overcast
12:55 AM 46.4 °F 40.4 °F 37.4 °F 71% 29.95 in 10.0 mi South 13.8 mph 18.4 mph N/A   Mostly Cloudy
1:15 AM 46.4 °F 39.2 °F 41.0 °F 81% 29.93 in 10.0 mi South 18.4 mph 23.0 mph N/A   Scattered Clouds
1:35 AM 46.4 °F 40.1 °F 41.0 °F 81% 29.92 in 10.0 mi South 15.0 mph 19.6 mph N/A   Mostly Cloudy
1:55 AM 46.4 °F 40.4 °F 42.8 °F 87% 29.92 in 10.0 mi SSW 13.8 mph 20.7 mph N/A   Mostly Cloudy
2:15 AM 46.4 °F 41.5 °F 42.8 °F 87% 29.92 in 10.0 mi SSW 10.4 mph 16.1 mph N/A   Overcast
2:35 AM 46.4 °F 40.7 °F 42.8 °F 87% 29.92 in 10.0 mi SSW 12.7 mph - N/A   Overcast
2:55 AM 48.2 °F - 42.8 °F 82% 29.91 in 7.0 mi SSW 11.5 mph 18.4 mph N/A   Overcast
3:15 AM 48.2 °F - 44.6 °F 87% 29.88 in 7.0 mi South 24.2 mph 28.8 mph N/A   Overcast
3:35 AM 48.2 °F - 44.6 °F 87% 29.88 in 5.0 mi South 20.7 mph 27.6 mph N/A   Overcast
3:55 AM 48.2 °F - 44.6 °F 87% 29.88 in 5.0 mi South 18.4 mph 29.9 mph N/A   Overcast
4:15 AM 48.2 °F - 44.6 °F 87% 29.88 in 5.0 mi South 18.4 mph 26.5 mph N/A   Overcast
4:35 AM 50.0 °F - 46.4 °F 87% 29.87 in 5.0 mi South 19.6 mph - N/A   Overcast
4:55 AM 50.0 °F - 46.4 °F 87% 29.86 in 5.0 mi SSW 18.4 mph 23.0 mph N/A   Overcast
5:15 AM 50.0 °F - 46.4 °F 87% 29.86 in 4.0 mi SSW 15.0 mph 23.0 mph N/A   Overcast
5:35 AM 50.0 °F - 48.2 °F 94% 29.86 in 4.0 mi SSW 17.3 mph 23.0 mph N/A   Overcast
5:55 AM 51.8 °F - 48.2 °F 88% 29.85 in 4.0 mi SSW 21.9 mph 28.8 mph N/A   Overcast
6:15 AM 51.8 °F - 50.0 °F 94% 29.84 in 4.0 mi South 21.9 mph 29.9 mph N/A   Overcast
6:35 AM 51.8 °F - 50.0 °F 94% 29.84 in 3.0 mi South 23.0 mph 28.8 mph N/A   Overcast
6:55 AM 51.8 °F - 50.0 °F 94% 29.85 in 3.0 mi South 19.6 mph 25.3 mph N/A   Overcast
7:15 AM 51.8 °F - 50.0 °F 94% 29.85 in 2.5 mi SSW 16.1 mph 27.6 mph N/A   Overcast
7:35 AM 51.8 °F - 50.0 °F 94% 29.85 in 2.5 mi South 21.9 mph 27.6 mph N/A   Overcast
7:55 AM 51.8 °F - 50.0 °F 94% 29.84 in 2.0 mi South 24.2 mph 28.8 mph N/A   Overcast
8:15 AM 51.8 °F - 50.0 °F 94% 29.84 in 3.0 mi SSW 23.0 mph 29.9 mph N/A   Overcast
8:35 AM 53.6 °F - 51.8 °F 94% 29.85 in 3.0 mi SSW 19.6 mph 27.6 mph N/A   Overcast
8:55 AM 53.6 °F - 51.8 °F 94% 29.85 in 4.0 mi South 23.0 mph 29.9 mph N/A   Overcast
9:15 AM 53.6 °F - 51.8 °F 94% 29.85 in 4.0 mi SSW 21.9 mph 31.1 mph N/A   Overcast
9:35 AM 55.4 °F - 51.8 °F 88% 29.85 in 7.0 mi South 21.9 mph 33.4 mph N/A   Overcast
9:55 AM 55.4 °F - 51.8 °F 88% 29.84 in 10.0 mi South 25.3 mph 29.9 mph N/A   Overcast
10:15 AM 57.2 °F - 51.8 °F 82% 29.85 in 10.0 mi SSW 21.9 mph 33.4 mph N/A   Overcast
10:35 AM 59.0 °F - 51.8 °F 77% 29.84 in 10.0 mi South 25.3 mph 29.9 mph N/A   Mostly Cloudy
10:55 AM 60.8 °F - 51.8 °F 72% 29.83 in 10.0 mi South 24.2 mph 33.4 mph N/A   Scattered Clouds
11:15 AM 62.6 °F - 51.8 °F 68% 29.84 in 10.0 mi South 24.2 mph 29.9 mph N/A   Clear
11:35 AM 62.6 °F - 51.8 °F 68% 29.82 in 10.0 mi South 19.6 mph 26.5 mph N/A   Clear
11:55 AM 64.4 °F - 50.0 °F 59% 29.81 in 10.0 mi South 20.7 mph 26.5 mph N/A   Scattered Clouds
12:15 PM 69.8 °F - 46.4 °F 43% 29.79 in 10.0 mi SSW 25.3 mph 35.7 mph N/A   Scattered Clouds
12:35 PM 69.8 °F - 44.6 °F 40% 29.78 in 10.0 mi SSW 24.2 mph 34.5 mph N/A   Clear
12:55 PM 71.6 °F - 41.0 °F 33% 29.78 in 10.0 mi SSW 28.8 mph 33.4 mph N/A   Clear
1:15 PM 71.6 °F - 42.8 °F 35% 29.76 in 10.0 mi SSW 27.6 mph 33.4 mph N/A   Clear
1:35 PM 73.4 °F - 42.8 °F 33% 29.75 in 10.0 mi SSW 23.0 mph 29.9 mph N/A   Clear
1:55 PM 73.4 °F - 41.0 °F 31% 29.75 in 10.0 mi SW 24.2 mph 33.4 mph N/A   Clear
2:15 PM 75.2 °F - 41.0 °F 29% 29.74 in 10.0 mi SSW 24.2 mph 29.9 mph N/A   Clear
2:35 PM 77.0 °F - 39.2 °F 26% 29.73 in 10.0 mi SSW 23.0 mph 32.2 mph N/A   Clear
2:55 PM 78.8 °F - 32.0 °F 18% 29.73 in 10.0 mi SW 23.0 mph 31.1 mph N/A   Clear
3:15 PM 78.8 °F - 32.0 °F 18% 29.73 in 10.0 mi SSW 24.2 mph 33.4 mph N/A   Clear
3:35 PM 78.8 °F - 32.0 °F 18% 29.74 in 10.0 mi SSW 24.2 mph 32.2 mph N/A   Clear
3:55 PM 78.8 °F - 30.2 °F 17% 29.74 in 10.0 mi SW 23.0 mph 31.1 mph N/A   Clear
4:15 PM 77.0 °F - 32.0 °F 19% 29.74 in 10.0 mi SW 24.2 mph 31.1 mph N/A   Clear
4:35 PM 77.0 °F - 32.0 °F 19% 29.74 in 10.0 mi SW 23.0 mph 31.1 mph N/A   Clear
4:55 PM 77.0 °F - 32.0 °F 19% 29.74 in 10.0 mi SW 19.6 mph 26.5 mph N/A   Clear
5:15 PM 73.4 °F - 32.0 °F 22% 29.74 in 10.0 mi SSW 19.6 mph 24.2 mph N/A   Clear
5:35 PM 71.6 °F - 33.8 °F 25% 29.75 in 10.0 mi SSW 15.0 mph 24.2 mph N/A   Clear
5:55 PM 71.6 °F - 33.8 °F 25% 29.75 in 10.0 mi SSW 13.8 mph - N/A   Clear
6:15 PM 69.8 °F - 33.8 °F 27% 29.76 in 10.0 mi SSW 13.8 mph - N/A   Clear
6:35 PM 68.0 °F - 33.8 °F 28% 29.76 in 10.0 mi South 11.5 mph - N/A   Clear
6:55 PM 64.4 °F - 33.8 °F 32% 29.77 in 10.0 mi South 11.5 mph - N/A   Clear
7:15 PM 64.4 °F - 33.8 °F 32% 29.77 in 10.0 mi South 11.5 mph - N/A   Clear
7:35 PM 64.4 °F - 33.8 °F 32% 29.78 in 10.0 mi South 11.5 mph - N/A   Clear
7:55 PM 62.6 °F - 33.8 °F 34% 29.78 in 10.0 mi South 12.7 mph - N/A   Clear
8:15 PM 62.6 °F - 33.8 °F 34% 29.79 in 10.0 mi South 12.7 mph - N/A   Clear
8:35 PM 62.6 °F - 33.8 °F 34% 29.79 in 10.0 mi SSW 11.5 mph - N/A   Clear
8:55 PM 60.8 °F - 33.8 °F 36% 29.79 in 10.0 mi SSW 12.7 mph - N/A   Clear
9:15 PM 60.8 °F - 33.8 °F 36% 29.80 in 10.0 mi SSW 9.2 mph - N/A   Clear
9:35 PM 60.8 °F - 33.8 °F 36% 29.80 in 10.0 mi SW 11.5 mph - N/A   Clear
9:55 PM 59.0 °F - 33.8 °F 39% 29.81 in 10.0 mi SW 9.2 mph - N/A   Clear
10:15 PM 57.2 °F - 33.8 °F 41% 29.81 in 10.0 mi SW 9.2 mph - N/A   Clear
10:55 PM 57.2 °F - 33.8 °F 41% 29.81 in 10.0 mi SSW 10.4 mph - N/A   Clear
11:15 PM 55.4 °F - 33.8 °F 44% 29.82 in 10.0 mi SW 9.2 mph - N/A   Clear
11:35 PM 53.6 °F - 33.8 °F 47% 29.82 in 10.0 mi SSW 9.2 mph - N/A   Clear
11:55 PM 53.6 °F - 33.8 °F 47% 29.82 in 10.0 mi SW 9.2 mph - N/A   Clear